Location: Stockholm
(59.3333°N, 18.0500°E)
Time: 13:10:24
(UTC+02:00)

ISS - Pass Details

Date: 16 May 2021
Orbit: 417 x 422 km, 51.6° (Epoch: 14 May)

Event Time Altitude Azimuth Distance (km) Brightness Sun altitude
Rises 22:53:07 0° 227° (SW) 2,360 -0.1 -8.1°
Reaches altitude 10° 22:55:39 10° 208° (SSW) 1,499 -1.3 -8.3°
Maximum altitude 22:58:00 18° 163° (SSE) 1,114 -2.2 -8.4°
Drops below altitude 10° 23:00:21 10° 119° (ESE) 1,504 -1.4 -8.5°
Sets 23:02:54 0° 100° (E) 2,371 -0.3 -8.7°
